Temp
72 79 76 74 61 59 55 66 75 77 78 76 76 76 71 75 71 61 74 75 80 80 80 82 80 80 80 80 80 79 79 79 79 79 79 79 79 79 79 79 80 81 81 81 81 81 81 81 81
74 82 76 70 57 49 56 71 71 76 81 74 76 77 74 65 74 74 76 76 78 83 80 79 80 80 80 80 80 79 79 79 79 79 79 79 79 79 79 79 80 81 81 82 82 81 81 81 81
76 81 67 62 56 53 57 72 76 81 88 86 79 83 77 67 70 76 81 84 85 85 81 79 80 79 80 80 79 79 79 79 79 79 79 79 79 79 79 79 80 80 81 82 82 81 81 81 81
76 72 70 58 57 67 71 72 78 81 83 87 86 79 83 76 76 80 88 91 88 82 78 79 79 79 79 79 79 79 79 79 79 79 79 79 79 79 78 79 79 80 81 81 81 80 80 80 80
74 69 57 54 62 69 72 78 78 78 80 83 85 78 80 90 93 93 93 93 85 80 78 78 79 79 79 79 79 79 79 79 79 79 79 79 79 78 78 79 79 80 80 80 80 80 80 80 80
66 67 54 52 63 74 74 77 79 80 82 82 82 81 79 88 79 76 92 88 87 82 79 78 79 79 79 79 79 79 79 79 79 79 79 79 79 78 78 79 79 80 80 80 80 80 79 79 79
62 59 56 61 68 69 73 76 76 77 79 81 84 77 77 86 90 93 94 91 88 84 80 77 76 78 79 79 78 78 78 78 78 78 78 78 78 78 78 78 79 79 79 79 79 79 78 78 78
70 64 60 62 65 63 74 78 77 80 80 90 87 74 71 81 89 90 92 92 88 83 80 76 75 76 75 76 79 78 78 78 78 78 78 78 78 78 78 78 78 78 78 79 78 78 78 78 78
74 58 54 61 68 64 72 73 82 86 83 84 85 83 85 90 91 88 89 86 80 87 83 77 76 76 78 77 79 78 79 79 78 78 78 77 74 75 76 77 78 78 78 78 78 78 78 77 77
68 55 61 70 71 70 74 76 79 80 79 78 82 86 89 88 84 81 80 79 80 79 81 78 76 77 79 89 76 75 78 75 75 75 75 74 73 74 81 78 79 79 78 78 78 78 78 78 73
69 62 70 76 75 77 74 77 81 75 71 74 75 79 82 81 79 78 78 77 75 77 78 78 75 75 75 76 75 74 73 73 74 74 73 73 77 75 76 75 80 78 78 77 77 76 76 75 74
64 76 74 74 78 75 74 80 78 76 74 81 81 81 79 77 75 75 74 75 74 74 74 76 76 72 72 74 71 73 71 69 71 72 74 72 71 71 72 71 76 77 79 77 76 75 76 75 76
68 75 76 77 76 70 79 75 74 73 81 83 83 80 76 74 74 75 74 74 74 72 73 74 74 72 73 72 71 70 71 72 72 71 73 70 71 69 70 70 81 78 78 78 74 76 76 76 76
73 74 74 72 73 72 71 75 76 76 82 81 79 76 76 74 73 73 72 71 72 72 71 72 72 71 71 70 69 69 69 71 73 72 71 70 66 66 67 71 74 77 81 81 79 79 78 77 78
72 65 73 72 74 71 75 70 70 78 81 78 78 78 76 74 74 72 72 71 70 71 70 70 73 73 69 69 71 70 68 73 71 71 71 71 69 67 66 67 69 79 78 78 74 73 73 73 80
68 63 55 70 76 73 73 59 72 78 78 76 77 78 76 73 73 74 74 72 71 69 69 70 74 70 68 67 70 72 72 70 71 71 71 74 73 73 69 67 71 75 77 74 73 71 69 77 71
63 54 60 66 76 74 69 62 72 77 76 74 74 74 75 71 71 72 74 73 72 70 69 68 69 69 68 67 67 69 70 69 71 71 71 73 75 77 73 75 77 77 76 74 72 70 69 75 73
56 59 62 63 68 71 62 63 70 75 74 73 74 73 73 73 71 73 74 75 73 71 70 69 68 67 67 66 65 66 69 70 72 72 73 73 74 77 74 73 73 74 72 74 72 70 71 69 72
66 64 63 67 73 67 63 64 66 71 71 70 70 70 70 71 74 74 75 74 73 71 69 68 66 66 65 63 62 63 63 65 69 71 73 73 73 73 70 67 69 72 71 74 71 71 69 69 71
67 63 62 68 73 65 62 64 69 71 69 71 69 68 69 70 71 74 72 71 71 70 69 68 66 66 65 64 63 63 62 64 65 68 68 70 69 70 72 67 66 68 69 70 72 69 68 68 70
64 62 61 60 67 67 63 59 64 70 72 71 70 71 73 70 68 68 71 69 70 69 69 67 66 66 65 65 63 63 62 62 61 63 64 67 68 69 69 69 68 70 68 68 68 68 67 69 67
57 69 68 66 58 48 61 43 57 61 54 61 63 64 67 70 73 70 69 65 67 69 69 67 67 65 66 65 63 61 58 60 62 61 62 64 66 67 68 69 69 68 68 68 67 69 67 66 69
62 69 64 63 55 50 56 46 51 58 53 53 58 62 65 69 68 70 67 69 69 71 69 66 65 65 65 63 63 60 59 59 60 60 60 63 64 64 66 67 67 67 64 67 67 68 65 66 66
72 64 61 59 53 40 53 51 48 52 55 56 59 63 67 66 69 69 69 69 68 70 68 66 65 64 63 63 63 60 59 58 56 59 60 62 64 64 64 66 65 65 64 65 65 67 67 67 65
65 51 39 39 39 40 58 54 49 60 63 64 62 64 66 68 67 67 65 67 67 68 66 68 63 63 63 62 62 60 58 57 56 56 58 57 59 61 62 63 62 63 63 64 65 65 65 67 66
58 54 37 29 30 41 56 45 49 63 67 68 67 66 68 66 65 66 64 67 66 66 66 65 63 62 62 60 58 57 56 57 58 58 57 58 59 60 62 62 61 62 63 63 67 64 64 65 65
59 50 57 45 47 39 47 53 59 64 63 64 64 66 64 66 65 62 65 67 65 65 63 63 62 60 60 58 55 54 55 57 57 56 56 57 57 58 59 59 60 61 61 61 62 63 62 63 64
59 64 46 42 32 32 45 46 48 55 58 61 60 60 63 64 63 66 66 65 65 64 62 62 60 58 57 55 53 56 56 56 57 58 57 57 56 55 57 58 59 60 60 62 60 61 63 62 64
55 52 53 49 43 32 29 41 57 56 58 55 59 61 63 61 64 64 64 64 64 63 62 60 58 56 54 53 54 55 54 55 55 55 56 56 56 56 56 56 57 58 59 61 60 59 61 61 62
62 55 54 39 42 40 38 39 64 58 59 58 56 62 67 60 63 63 64 64 62 60 59 57 55 54 53 53 53 52 54 54 52 51 52 54 54 55 55 56 56 57 58 59 61 60 60 60 61
MSLP
1009.57 1009.19 1009.54 1009.58 1009.95 1009.08 1007.67 1005.34 1003.52 1002.60 1002.51 1004.00 1003.91 1004.76 1007.68 1009.34 1010.84 1011.10 1011.86 1011.03 1009.06 1010.15 1009.86 1009.45 1009.46 1009.44 1009.78 1009.58 1009.87 1010.11 1010.16 1010.44 1010.72 1010.95 1011.26 1011.59 1011.94 1012.24 1012.41 1012.60 1012.77 1012.93 1013.21 1013.48 1013.62 1013.70 1013.82 1013.96 1014.10
1009.54 1009.38 1009.20 1009.36 1009.58 1009.10 1007.20 1004.63 1003.36 1002.54 1003.19 1003.66 1004.61 1006.38 1007.87 1010.37 1009.74 1009.53 1011.00 1010.33 1009.27 1009.96 1009.82 1009.67 1009.60 1009.73 1009.96 1009.94 1010.13 1010.36 1010.37 1010.56 1010.90 1011.03 1011.30 1011.77 1012.16 1012.60 1012.71 1012.89 1013.00 1013.10 1013.33 1013.48 1013.64 1013.82 1013.90 1014.00 1014.07
1009.66 1009.68 1009.78 1009.32 1008.78 1007.98 1006.33 1004.16 1002.83 1002.05 1001.45 1002.39 1004.49 1005.65 1007.24 1009.81 1009.16 1009.02 1008.17 1009.14 1009.00 1009.29 1009.62 1009.64 1009.70 1009.88 1010.22 1010.26 1010.32 1010.64 1010.60 1010.71 1011.07 1011.25 1011.55 1011.87 1012.27 1012.54 1012.76 1013.06 1013.25 1013.40 1013.50 1013.53 1013.62 1013.78 1013.89 1013.96 1014.08
1009.52 1009.55 1009.36 1008.82 1008.25 1006.03 1004.84 1003.40 1002.62 1002.16 1001.67 1002.09 1003.06 1004.93 1006.32 1006.89 1007.19 1007.10 1006.92 1007.59 1007.97 1008.73 1009.43 1009.78 1010.02 1010.00 1010.38 1010.45 1010.48 1010.74 1010.76 1010.78 1011.06 1011.40 1011.70 1012.02 1012.34 1012.72 1012.96 1013.12 1013.23 1013.32 1013.50 1013.57 1013.75 1013.88 1013.92 1014.04 1014.06
1009.51 1009.37 1009.50 1008.55 1007.03 1005.53 1004.00 1002.80 1002.36 1002.36 1002.20 1002.92 1003.20 1005.38 1005.96 1006.06 1006.22 1006.48 1007.52 1008.23 1007.91 1008.55 1009.17 1009.48 1009.76 1010.07 1010.31 1010.43 1010.55 1010.75 1011.09 1011.21 1011.42 1011.63 1011.84 1012.09 1012.46 1012.71 1012.92 1013.12 1013.28 1013.36 1013.46 1013.55 1013.71 1013.87 1013.93 1013.98 1014.10
1009.67 1009.27 1009.38 1008.63 1006.94 1004.68 1003.61 1002.82 1002.60 1002.56 1002.91 1003.64 1003.86 1005.01 1005.68 1006.12 1007.76 1008.00 1007.65 1007.52 1007.47 1007.66 1008.48 1008.93 1009.21 1009.60 1009.60 1009.90 1010.29 1010.79 1011.23 1011.39 1011.64 1011.94 1012.28 1012.51 1012.72 1012.90 1013.06 1013.23 1013.28 1013.40 1013.52 1013.56 1013.64 1013.76 1013.83 1013.88 1013.94
1009.40 1009.81 1009.20 1008.27 1006.78 1005.24 1003.62 1002.68 1002.93 1003.34 1003.52 1003.74 1004.29 1005.34 1006.12 1006.13 1006.40 1006.28 1006.19 1006.64 1007.39 1007.25 1007.90 1008.71 1009.75 1009.90 1010.00 1009.89 1010.08 1010.32 1010.69 1011.08 1011.48 1011.79 1012.17 1012.47 1012.68 1012.88 1013.09 1013.28 1013.42 1013.44 1013.52 1013.64 1013.72 1013.74 1013.72 1013.74 1013.72
1008.38 1009.19 1008.86 1007.60 1006.58 1005.57 1003.58 1003.10 1003.13 1003.40 1003.99 1004.04 1004.52 1006.31 1006.38 1006.26 1006.33 1006.16 1005.96 1006.50 1006.98 1008.48 1009.55 1010.16 1010.14 1010.57 1010.08 1010.27 1010.62 1010.73 1010.73 1010.75 1010.78 1010.98 1011.64 1012.24 1012.54 1012.71 1012.83 1013.00 1013.16 1013.24 1013.33 1013.41 1013.56 1013.60 1013.60 1013.60 1013.56
1007.71 1008.64 1008.63 1007.62 1006.42 1005.07 1004.02 1003.73 1003.58 1003.67 1004.34 1005.19 1005.48 1006.18 1006.54 1006.12 1006.29 1007.05 1007.96 1008.40 1009.66 1009.57 1010.20 1009.96 1010.88 1010.57 1010.84 1010.63 1010.83 1011.08 1011.37 1011.60 1011.72 1011.90 1012.23 1012.11 1012.30 1012.64 1012.85 1012.78 1012.70 1012.74 1012.82 1012.84 1013.09 1013.16 1013.14 1013.30 1013.32
1007.62 1008.30 1007.93 1006.73 1006.16 1005.88 1004.76 1004.47 1004.34 1004.60 1005.73 1006.74 1006.86 1007.09 1006.98 1007.24 1007.55 1008.08 1008.60 1009.57 1010.60 1011.06 1011.22 1011.19 1011.31 1011.34 1010.90 1009.92 1010.89 1011.20 1011.36 1011.35 1011.38 1011.33 1011.58 1011.66 1011.70 1011.80 1011.97 1012.12 1012.29 1012.40 1012.50 1012.50 1012.47 1012.60 1012.56 1012.61 1012.82
1006.92 1007.25 1006.92 1006.22 1005.88 1005.79 1005.48 1004.92 1004.78 1005.54 1007.04 1007.76 1008.08 1008.32 1008.53 1008.78 1009.12 1009.38 1009.90 1010.47 1010.73 1011.05 1011.01 1011.58 1011.48 1011.04 1011.39 1011.44 1011.18 1011.59 1011.50 1011.27 1011.10 1011.04 1011.21 1011.36 1011.38 1011.30 1011.24 1011.54 1011.50 1011.73 1011.98 1012.34 1012.23 1012.14 1012.25 1012.07 1011.97
1006.32 1006.16 1006.08 1005.90 1005.71 1005.90 1005.94 1005.49 1006.02 1006.32 1007.56 1007.84 1008.30 1008.86 1009.42 1010.12 1010.58 1010.88 1011.05 1011.24 1011.33 1011.30 1011.52 1011.16 1010.94 1011.08 1011.07 1011.18 1011.72 1011.69 1011.63 1011.55 1011.28 1011.05 1010.78 1010.54 1010.70 1010.68 1010.72 1011.24 1010.94 1010.64 1011.08 1011.44 1011.63 1011.58 1011.53 1011.56 1011.44
1006.05 1005.95 1005.71 1005.62 1005.73 1005.95 1006.05 1006.34 1006.93 1007.27 1007.58 1008.06 1008.75 1009.50 1010.28 1011.04 1011.51 1011.65 1011.92 1011.97 1011.85 1011.73 1011.52 1011.46 1011.33 1011.26 1011.08 1011.20 1011.50 1011.84 1011.88 1011.34 1011.10 1010.84 1010.30 1010.28 1010.33 1010.23 1010.10 1009.94 1010.55 1009.66 1009.99 1010.58 1010.98 1011.23 1010.94 1011.02 1010.94
1006.14 1006.01 1005.83 1005.73 1005.89 1006.11 1006.45 1006.63 1006.69 1007.70 1007.75 1008.37 1009.01 1009.94 1010.69 1011.42 1012.05 1012.40 1012.72 1013.02 1012.93 1012.95 1012.85 1012.51 1012.26 1012.16 1012.04 1012.15 1012.04 1011.94 1011.68 1011.45 1010.95 1010.68 1010.51 1010.37 1010.37 1010.05 1009.95 1010.03 1009.29 1009.77 1009.24 1009.49 1009.67 1010.04 1010.38 1010.42 1010.55
1006.21 1006.49 1006.21 1006.02 1006.06 1006.38 1006.46 1006.93 1007.18 1007.53 1007.96 1008.61 1009.30 1010.00 1010.82 1011.58 1012.06 1012.72 1013.06 1013.32 1013.36 1013.38 1013.32 1013.25 1012.98 1012.89 1012.74 1012.47 1012.25 1012.00 1011.56 1011.12 1011.02 1010.86 1010.54 1010.38 1010.38 1010.23 1009.85 1009.51 1009.05 1008.86 1008.35 1008.79 1009.32 1009.74 1009.94 1009.80 1009.62
1006.66 1006.68 1006.74 1006.09 1006.04 1006.55 1006.76 1007.33 1007.70 1007.70 1008.11 1008.76 1009.31 1009.94 1010.86 1011.65 1012.08 1012.40 1012.55 1012.79 1013.04 1013.20 1013.30 1013.05 1012.94 1012.85 1012.84 1012.81 1012.48 1012.00 1011.48 1011.08 1010.63 1010.16 1010.08 1010.01 1009.94 1009.90 1010.15 1009.52 1009.14 1008.58 1008.08 1008.48 1008.77 1008.96 1009.19 1008.96 1009.20
1007.11 1006.85 1006.72 1006.15 1006.02 1006.58 1006.96 1007.72 1007.86 1007.69 1008.22 1008.83 1009.29 1009.90 1010.76 1011.56 1011.96 1012.10 1012.15 1012.26 1012.40 1012.61 1012.68 1012.73 1012.71 1012.72 1012.72 1012.67 1012.46 1012.16 1011.72 1011.49 1010.95 1010.46 1010.12 1009.58 1009.62 1009.36 1009.60 1009.13 1008.54 1007.33 1007.58 1007.88 1008.25 1008.68 1008.80 1008.96 1008.28
1007.44 1007.09 1006.48 1006.20 1006.51 1006.50 1007.16 1007.63 1007.91 1008.05 1008.33 1008.88 1009.29 1010.08 1010.71 1011.05 1011.51 1011.64 1011.76 1011.76 1011.97 1012.16 1012.26 1012.33 1012.40 1012.41 1012.44 1012.38 1012.25 1012.15 1011.96 1011.52 1011.01 1010.66 1010.16 1009.76 1009.34 1008.78 1008.62 1008.61 1007.84 1007.21 1007.66 1007.63 1007.56 1008.00 1008.36 1008.30 1008.00
1007.14 1007.02 1006.81 1006.53 1006.46 1006.92 1007.37 1007.85 1007.90 1008.04 1008.52 1009.10 1009.64 1010.04 1010.54 1011.02 1011.15 1011.22 1011.13 1011.22 1011.68 1011.98 1012.04 1012.08 1012.13 1012.24 1012.33 1012.42 1012.43 1012.32 1012.12 1011.85 1011.56 1011.14 1010.39 1009.86 1009.42 1009.13 1008.75 1008.16 1007.92 1007.64 1007.52 1007.32 1007.34 1007.34 1007.70 1007.71 1007.52
1007.18 1007.23 1007.01 1006.57 1006.78 1007.13 1007.50 1008.01 1007.96 1008.01 1008.69 1009.19 1009.87 1010.45 1010.65 1010.71 1010.74 1010.84 1010.92 1011.07 1011.49 1011.58 1011.66 1011.80 1012.00 1012.06 1012.07 1012.08 1012.06 1012.09 1012.06 1011.73 1011.52 1011.16 1010.72 1010.32 1009.94 1009.64 1009.26 1008.70 1008.02 1007.59 1007.54 1007.08 1006.94 1007.14 1007.36 1007.32 1006.89
1007.19 1007.44 1007.36 1007.68 1007.66 1007.74 1008.34 1008.85 1008.36 1008.08 1008.90 1009.53 1009.91 1010.06 1010.17 1010.34 1010.58 1010.80 1010.84 1011.19 1011.22 1011.35 1011.34 1011.54 1011.66 1011.70 1011.76 1011.75 1011.68 1011.73 1011.56 1011.60 1011.46 1011.07 1010.73 1010.33 1009.94 1009.54 1009.30 1008.82 1008.29 1007.66 1007.36 1007.17 1006.76 1006.64 1006.87 1007.16 1006.76
1007.64 1007.77 1008.09 1008.48 1009.06 1009.57 1009.43 1009.97 1009.40 1009.58 1010.98 1010.98 1010.88 1010.78 1010.84 1010.47 1010.46 1010.56 1010.82 1011.00 1011.04 1011.18 1011.08 1011.16 1011.20 1011.46 1011.40 1011.36 1011.52 1011.63 1011.67 1011.62 1011.37 1011.02 1010.46 1010.21 1009.86 1009.58 1009.09 1008.80 1008.32 1007.81 1007.34 1006.93 1006.64 1006.21 1006.33 1006.64 1006.71
1008.08 1008.35 1009.04 1009.62 1010.26 1010.76 1010.35 1010.90 1010.97 1010.48 1012.06 1012.27 1011.88 1011.74 1011.18 1010.68 1010.59 1010.77 1010.82 1010.80 1011.04 1010.85 1010.69 1010.99 1011.06 1011.13 1011.15 1011.28 1011.43 1011.49 1011.40 1011.19 1010.76 1010.52 1010.23 1009.88 1009.49 1009.20 1008.87 1008.50 1008.06 1007.62 1007.05 1006.55 1006.20 1005.83 1005.90 1005.84 1006.08
1008.22 1008.96 1009.68 1010.22 1011.12 1011.93 1011.06 1011.12 1011.33 1011.20 1011.72 1012.39 1012.34 1012.00 1011.50 1010.91 1010.72 1010.81 1010.77 1010.90 1010.84 1010.58 1010.52 1010.80 1011.07 1011.20 1011.12 1011.06 1011.12 1011.20 1011.11 1010.89 1010.61 1010.27 1009.91 1009.40 1009.02 1008.75 1008.48 1008.17 1007.79 1007.56 1007.21 1006.74 1006.32 1005.73 1005.16 1005.00 1005.25
1008.49 1009.84 1011.22 1012.09 1012.33 1012.37 1011.54 1011.26 1011.52 1011.15 1011.34 1011.67 1011.99 1011.96 1011.28 1010.78 1010.73 1010.88 1010.99 1010.89 1010.69 1010.64 1010.67 1010.83 1011.18 1011.28 1011.13 1011.12 1011.14 1011.20 1011.39 1011.23 1010.84 1010.48 1009.93 1009.34 1008.82 1008.44 1008.09 1007.79 1007.51 1007.21 1006.94 1006.55 1006.04 1005.54 1005.08 1004.60 1004.51
1008.77 1009.88 1011.98 1013.49 1013.96 1013.64 1012.10 1012.34 1012.43 1011.57 1011.26 1011.39 1011.48 1011.48 1011.34 1011.16 1010.87 1010.86 1010.92 1010.74 1010.68 1010.80 1010.73 1011.10 1011.29 1011.33 1011.32 1011.36 1011.39 1011.25 1011.17 1011.16 1010.82 1010.27 1009.78 1009.26 1008.66 1008.04 1007.71 1007.38 1007.19 1006.75 1006.39 1006.08 1005.43 1005.02 1004.69 1004.26 1003.98
1008.78 1009.92 1011.50 1013.37 1014.30 1014.68 1013.54 1012.96 1012.37 1011.87 1011.90 1011.74 1011.73 1011.52 1011.49 1011.26 1010.99 1010.87 1010.62 1010.60 1011.04 1011.17 1011.42 1011.46 1011.51 1011.59 1011.56 1011.54 1011.41 1011.35 1010.92 1010.79 1010.38 1009.89 1009.38 1008.82 1008.33 1007.83 1007.38 1006.94 1006.48 1006.16 1005.82 1005.58 1005.17 1004.64 1004.40 1004.04 1003.59
1008.69 1009.80 1011.36 1013.52 1015.30 1015.57 1014.18 1013.52 1012.76 1012.32 1012.10 1012.01 1011.96 1011.83 1011.54 1011.29 1011.14 1010.87 1010.98 1011.16 1011.20 1011.22 1011.51 1011.60 1011.69 1011.77 1011.78 1011.66 1011.58 1011.14 1010.74 1010.40 1009.96 1009.30 1008.71 1008.23 1007.78 1007.47 1006.91 1006.30 1005.72 1005.29 1005.04 1004.71 1004.46 1004.17 1003.78 1003.50 1003.11
1008.94 1009.68 1011.01 1012.85 1014.51 1015.54 1015.08 1014.04 1012.04 1011.92 1011.88 1011.84 1011.77 1011.93 1011.58 1011.50 1011.22 1011.23 1011.33 1011.25 1011.28 1011.31 1011.44 1011.87 1012.06 1012.07 1011.90 1011.78 1011.38 1010.86 1010.36 1009.90 1009.44 1008.87 1008.15 1007.49 1006.93 1006.46 1005.95 1005.47 1004.92 1004.45 1004.11 1003.76 1003.52 1003.49 1003.22 1002.86 1002.55
1008.44 1009.26 1010.60 1012.79 1014.08 1014.68 1014.53 1013.52 1011.72 1011.57 1011.54 1011.50 1011.76 1011.49 1011.70 1011.30 1011.30 1011.34 1011.24 1011.35 1011.55 1012.05 1012.14 1012.34 1012.26 1012.16 1012.09 1011.78 1011.20 1010.65 1010.02 1009.50 1008.94 1008.42 1007.77 1006.96 1006.18 1005.51 1004.95 1004.45 1003.98 1003.52 1003.22 1002.96 1002.76 1002.63 1002.52 1002.38 1002.12
Wind_Speed
6 8 3 3 5 4 6 9 5 14 9 5 7 14 15 11 5 3 14 12 18 12 4 6 8 9 10 12 12 12 13 12 12 12 11 10 10 10 10 10 9 9 9 8 7 7 6 5 5
4 5 0 4 3 2 7 5 8 7 13 19 16 13 16 7 7 11 5 26 18 10 5 5 8 8 8 9 10 11 12 12 12 12 13 11 9 8 8 8 8 8 9 8 7 6 5 5 5
3 5 2 4 3 5 4 5 7 4 6 6 8 6 16 14 17 7 9 20 19 13 8 7 8 8 7 8 9 9 10 10 10 11 10 10 9 9 8 7 6 6 7 8 7 6 6 7 6
2 4 5 1 9 13 8 5 7 8 3 12 14 12 15 31 19 19 16 23 16 12 8 9 9 9 8 8 9 8 10 11 11 10 9 10 9 8 7 8 8 8 7 7 6 6 6 6 7
2 2 2 4 11 6 2 4 4 6 2 14 21 13 13 17 10 14 15 16 18 14 11 9 12 11 10 9 8 8 8 8 8 9 10 10 9 9 9 8 7 7 7 7 7 7 7 7 7
3 2 3 5 9 6 4 4 5 8 12 8 16 11 6 10 22 5 15 18 16 17 12 11 15 15 14 13 11 10 8 8 8 7 7 7 8 8 8 8 8 8 7 7 8 8 8 8 8
4 1 7 9 12 5 2 2 6 8 12 9 8 9 4 11 5 8 19 16 15 15 13 9 5 9 10 11 13 14 13 12 9 8 8 8 8 7 7 7 8 8 8 8 9 9 9 9 9
4 3 10 7 7 3 2 4 6 12 6 7 5 4 5 6 9 8 5 14 13 10 9 7 4 1 4 4 8 8 9 11 13 14 11 8 7 8 9 10 10 10 10 10 10 10 10 10 11
1 4 5 8 9 3 3 6 6 5 6 7 7 8 5 9 11 19 18 22 11 14 13 6 4 1 5 5 6 6 5 4 3 2 3 6 4 5 7 9 12 15 15 14 13 12 12 11 12
5 4 7 3 5 7 6 8 7 12 15 12 9 9 11 14 18 19 19 15 13 11 10 8 5 6 6 5 5 4 5 4 5 5 6 5 6 6 9 12 17 16 18 17 16 16 15 12 5
7 7 5 6 7 8 4 6 5 10 9 8 10 12 18 17 17 17 16 14 12 10 10 9 6 6 7 5 3 1 1 2 4 6 7 6 4 3 3 4 7 8 13 7 11 10 8 10 8
1 7 2 4 7 7 7 5 7 14 7 10 10 12 16 17 14 14 14 14 12 10 10 11 10 7 7 4 4 3 2 4 4 4 7 5 3 5 4 4 6 7 7 10 8 7 9 11 11
3 7 1 5 7 3 10 7 9 10 10 11 14 16 13 12 12 12 10 10 12 12 12 12 11 9 10 9 5 3 2 2 5 5 6 4 5 5 3 5 9 7 8 8 7 9 9 10 12
4 6 2 1 5 3 2 6 7 6 9 10 12 11 11 12 11 9 9 9 9 9 9 10 11 10 9 7 7 5 4 4 3 4 6 5 4 4 4 6 6 7 8 9 10 10 9 8 9
2 4 8 3 4 5 4 6 7 9 8 10 10 9 10 11 11 8 6 6 6 4 6 8 8 8 8 8 9 6 5 6 4 4 7 8 6 6 7 6 5 9 5 7 5 5 5 7 10
6 4 4 9 8 4 6 8 9 9 9 8 10 9 11 10 9 8 7 6 5 4 5 6 6 7 7 7 8 8 8 6 6 6 4 10 11 11 8 7 9 11 4 3 3 2 5 7 5
5 5 6 6 8 8 5 5 7 9 8 5 7 9 12 9 7 7 7 5 6 5 2 0 3 4 5 5 5 6 8 6 6 6 5 9 4 8 12 13 12 7 6 5 4 4 4 11 4
5 5 4 9 6 6 1 4 6 9 9 9 7 9 8 8 8 8 7 7 7 5 4 3 2 2 3 4 4 4 6 7 7 8 8 9 9 12 9 6 8 6 4 5 3 6 7 5 6
5 6 7 4 7 6 4 4 5 10 7 7 8 8 8 8 6 6 7 7 6 3 3 3 2 2 1 2 3 3 4 4 7 9 14 13 10 9 9 6 5 7 6 7 6 5 7 5 4
6 6 7 5 5 5 3 8 9 6 8 8 10 9 7 4 4 3 5 2 4 4 4 4 1 1 1 1 2 2 1 3 4 6 6 13 11 13 12 8 7 6 4 6 8 6 4 4 5
5 4 3 2 6 7 5 8 10 6 13 10 8 8 6 4 3 1 2 6 4 3 4 3 3 0 2 2 1 3 3 2 3 5 5 5 10 11 13 12 10 8 4 5 6 6 7 9 4
4 8 10 9 7 3 4 6 6 10 10 9 8 1 5 4 3 1 4 1 3 2 1 6 4 2 1 2 1 4 2 6 5 4 4 7 7 9 11 13 12 11 7 7 7 6 6 4 9
4 7 5 5 5 3 11 2 2 8 6 2 6 6 8 5 2 6 3 4 5 2 3 5 5 4 1 3 3 2 4 3 3 4 7 8 8 8 9 11 11 11 7 8 8 8 6 6 7
5 5 7 6 3 1 12 5 2 4 7 3 2 9 8 3 6 5 5 6 3 5 2 4 4 1 3 2 4 5 6 7 5 6 7 7 7 8 8 11 9 9 9 10 7 9 9 9 6
6 2 4 7 4 7 4 4 3 7 9 7 7 4 5 7 6 5 5 4 6 6 4 2 6 3 3 4 6 7 7 8 7 7 7 8 8 9 11 12 10 11 12 13 12 10 10 8 7
4 6 6 4 1 6 8 4 2 7 7 8 7 6 7 7 3 5 4 5 5 5 4 8 5 5 6 6 6 5 5 5 8 11 9 10 11 11 13 14 15 14 13 11 12 6 7 6 6
4 4 9 5 4 3 2 4 4 9 7 7 5 5 7 7 4 3 5 5 6 6 7 6 7 6 6 6 6 6 6 11 12 11 10 10 12 11 14 15 16 15 14 13 12 9 9 7 7
3 1 1 3 3 3 5 3 3 6 5 4 6 6 7 8 5 5 7 6 5 5 5 7 6 6 6 7 6 9 13 12 14 14 15 17 14 15 16 16 16 17 14 15 11 10 11 10 8
1 2 2 5 6 6 3 6 6 9 6 2 5 8 9 6 6 5 5 4 5 5 6 6 7 7 6 6 9 13 13 14 14 15 15 17 15 15 15 15 15 15 15 14 12 11 12 12 11
4 1 5 6 4 3 6 7 8 8 9 2 3 0 8 4 5 5 5 6 7 8 8 6 5 6 6 9 14 14 15 15 15 15 16 16 15 16 16 16 16 15 15 14 16 13 9 10 10
Wind_Direction
304 286 175 321 35 74 276 270 281 32 33 48 66 88 109 91 78 163 114 144 269 264 189 129 121 123 137 137 140 141 137 136 132 127 122 122 122 126 125 126 127 124 128 140 145 140 130 125 119
326 309 275 268 96 340 284 246 35 57 91 106 92 101 92 92 48 313 108 182 228 208 178 135 122 120 132 141 144 147 143 140 141 139 138 137 135 135 135 136 138 141 150 153 154 153 151 154 154
290 226 64 166 200 207 254 1 15 30 36 94 108 120 125 133 151 231 215 152 169 160 141 132 120 120 129 143 148 151 143 141 144 142 141 142 146 150 151 154 160 167 171 170 174 175 178 178 180
273 337 325 87 257 263 192 25 4 3 34 68 122 66 96 172 172 209 186 154 132 115 118 131 135 132 142 143 148 156 152 150 153 152 150 153 157 162 169 174 180 183 188 190 194 196 197 202 201
269 292 258 247 261 285 101 73 352 348 24 96 89 99 103 144 150 166 141 126 127 131 140 146 149 149 148 145 146 150 155 152 155 159 162 165 171 175 177 185 189 194 198 204 209 208 214 219 222
317 113 351 265 281 226 76 56 360 7 50 82 91 105 112 104 94 155 131 149 145 140 149 161 164 164 159 156 152 149 150 151 155 159 167 174 180 185 189 197 199 204 213 214 219 219 222 227 232
191 97 256 288 288 296 93 72 55 73 53 10 92 78 342 35 59 139 139 148 135 138 151 158 151 164 165 161 163 163 160 159 160 165 176 184 187 194 204 211 220 220 222 228 229 228 228 232 233
180 107 300 275 314 303 84 51 74 68 52 53 63 42 20 331 5 356 217 134 123 61 45 79 99 33 149 179 194 187 174 166 168 170 175 185 197 205 207 213 222 224 228 229 230 233 233 234 237
172 33 284 287 348 85 72 75 52 71 64 78 102 106 82 350 20 33 59 68 85 56 66 62 80 299 273 225 184 157 166 156 164 118 190 184 181 221 230 222 215 220 221 222 225 228 230 238 241
122 151 245 223 26 4 37 67 79 57 48 30 61 49 40 36 44 38 42 49 73 62 63 44 70 67 23 37 127 140 175 181 180 185 194 193 197 210 229 222 225 227 224 222 218 222 223 229 224
219 215 263 344 53 20 7 33 72 82 50 63 62 54 44 46 44 40 44 41 32 45 42 48 40 28 72 47 40 106 219 245 195 195 195 195 231 230 239 221 221 218 225 227 226 224 223 222 212
181 278 213 49 48 17 354 3 61 92 108 86 71 75 58 44 46 45 36 32 26 27 28 11 7 24 31 74 104 82 183 236 237 207 203 187 195 190 184 257 248 199 209 217 219 216 225 228 221
184 264 174 77 55 332 26 350 92 76 82 78 77 79 68 60 45 37 43 34 19 21 14 10 0 13 10 15 18 38 335 258 244 234 239 202 221 229 220 202 262 205 194 212 216 233 220 222 226
16 355 85 295 187 113 83 295 109 120 105 93 85 85 92 85 69 43 38 32 25 16 12 358 351 3 11 10 0 348 332 285 278 236 251 266 246 241 219 246 236 241 206 209 211 216 222 226 230
336 300 305 244 228 143 82 318 122 140 128 126 128 121 106 104 89 82 74 69 56 11 15 -0 358 358 4 359 349 338 313 319 308 226 231 222 224 236 214 232 273 262 236 226 193 234 264 250 227
240 251 232 236 191 167 116 285 141 142 136 164 139 136 123 113 116 115 106 97 81 64 30 3 1 0 7 353 336 328 316 304 289 286 222 220 216 223 239 233 240 234 211 187 208 222 228 220 211
268 233 219 128 168 154 136 141 166 170 154 154 139 136 130 130 132 142 128 136 144 139 135 36 354 340 347 343 324 324 324 331 335 332 326 319 289 238 225 225 233 216 210 205 172 199 230 257 250
326 339 79 147 179 94 319 306 190 184 159 182 149 123 129 120 145 153 164 188 164 163 178 184 235 294 328 325 324 329 330 327 331 327 319 317 313 310 314 319 266 231 255 261 228 196 218 220 232
316 305 316 94 153 124 143 246 267 193 181 148 159 137 120 109 136 148 190 202 165 174 208 216 243 280 9 318 325 333 320 326 338 336 325 319 310 313 302 295 293 287 233 237 229 216 219 238 231
319 301 298 304 33 92 145 249 245 230 179 162 118 95 97 106 141 228 268 122 144 208 231 226 350 333 275 269 283 286 299 288 290 306 328 327 350 337 334 317 293 283 272 250 239 226 242 245 209
283 298 293 53 357 349 325 305 268 259 115 96 99 120 134 183 202 107 46 139 187 223 200 115 138 149 258 284 308 305 309 315 313 298 308 305 320 328 328 320 310 307 300 273 257 236 220 251 268
335 20 11 8 20 281 50 276 311 94 53 73 82 87 295 136 107 235 85 187 206 154 183 158 136 162 223 326 325 307 285 306 280 275 278 296 301 305 311 305 308 310 296 284 271 266 238 232 254
258 28 345 300 287 335 296 14 243 99 62 127 154 231 288 280 28 55 29 305 83 266 247 166 151 179 324 345 9 337 301 267 269 286 290 292 293 284 291 295 297 292 281 269 253 260 260 247 244
298 306 296 267 186 330 249 205 275 140 163 185 215 240 260 16 49 22 14 60 321 315 15 142 163 48 69 40 312 305 294 292 301 296 296 299 303 303 297 291 303 330 328 332 311 282 249 247 240
201 27 331 348 38 219 330 330 221 137 146 165 195 189 21 12 27 2 43 358 328 325 10 57 65 27 347 350 344 340 338 331 325 316 310 308 303 300 301 302 303 304 303 303 304 297 290 258 244
291 137 146 196 39 288 333 31 359 64 59 64 56 29 5 340 324 9 17 322 318 11 45 67 49 7 12 17 14 7 347 324 310 302 299 295 296 295 292 295 291 287 288 285 287 289 287 274 248
329 56 164 107 18 31 235 99 47 66 36 26 345 322 302 295 323 59 338 339 18 20 50 52 35 23 6 12 1 332 343 324 310 298 292 294 293 293 290 286 284 285 287 288 290 283 291 288 271
212 272 49 21 127 228 313 76 202 142 154 246 319 335 325 323 350 338 10 42 10 48 53 33 45 22 10 9 348 335 322 313 306 302 294 294 293 286 283 280 280 278 270 270 268 277 275 273 277
175 258 200 131 135 168 192 268 184 193 171 162 271 310 293 313 343 32 29 10 33 55 38 30 31 12 1 347 330 325 314 307 305 299 295 294 288 280 277 276 275 271 268 260 261 265 269 267 268
130 262 127 121 267 190 155 263 278 154 180 101 83 226 277 329 42 42 18 18 34 34 26 26 1 354 347 336 329 320 313 309 307 299 296 294 289 284 280 272 267 266 265 264 264 263 270 280 275